Location: downtown San Diego
(32.7310°N, 117.1990°W)
Time: 12:59:40
(UTC-07:00)

Cosmos 407 Rocket - Pass Details

Date: 12 July 2018
Orbit: 744 x 787 km, 74.0° (Epoch: 20 September)

Event Time Altitude Azimuth Distance (km) Brightness Sun altitude
Rises 20:17:12 0° 205° (SSW) 3,181 6.7 -4.3°
Reaches altitude 10° 20:19:34 10° 209° (SSW) 2,266 6.0 -4.7°
Maximum altitude 20:24:37 59° 288° (WNW) 877 4.3 -5.6°
Drops below altitude 10° 20:29:47 10° 8° (N) 2,306 6.3 -6.5°
Sets 20:32:13 0° 12° (NNE) 3,243 7.0 -7.0°
